Location: Oroua River
(40.4333°S, 175.4333°E)
Time: 14:37:01
(UTC+00:00)

H-2A R/B - Pass Details

Date: 03 February 2023
Orbit: 732 x 836 km, 98.2° (Epoch: 22 March)

Event Time Altitude Azimuth Distance (km) Brightness Sun altitude
Rises 16:46:31 0° 23° (NNE) 3,278 5.2 -8.1°
Reaches altitude 10° 16:48:51 10° 25° (NNE) 2,341 4.5 -7.7°
Maximum altitude 16:53:58 66° 106° (ESE) 847 2.6 -6.9°
Drops below altitude 10° 16:59:00 10° 187° (S) 2,308 4.8 -6.0°
Sets 17:01:18 0° 189° (S) 3,228 5.5 -5.6°
